Location: Erdweis
(48.5167°N, 15.3500°E)
Time: 15:01:42
(UTC+00:00)

Cosmos 2369 Rocket - Pass Details

Date: 18 September 2020
Orbit: 827 x 854 km, 71.0° (Epoch: 23 October)

Event Time Altitude Azimuth Distance (km) Brightness Sun altitude
Exits shadow 22:59:26 20° 31° (NNE) 1,842 4.4 -40.1°
Drops below altitude 10° 23:01:07 10° 30° (NNE) 2,469 5.2 -40.1°
Sets 23:03:34 0° 29° (NNE) 3,412 6.1 -40.0°
